Location: Iesi
(43.5167°N, 13.2333°E)
Time: 16:18:21
(UTC+00:00)

Cosmos 1867 - Pass Details

Date: 08 August 2020
Orbit: 777 x 798 km, 65.0° (Epoch: 23 September)

Event Time Altitude Azimuth Distance (km) Brightness Sun altitude
Rises 20:58:28 0° 226° (SW) 3,269 6.7 -23.2°
Reaches altitude 10° 21:00:56 10° 230° (SW) 2,347 6.0 -23.5°
Maximum altitude 21:06:13 55° 309° (NW) 947 4.2 -24.0°
Drops below altitude 10° 21:11:35 10° 27° (NNE) 2,372 6.4 -24.5°
Sets 21:14:05 0° 32° (NNE) 3,308 7.1 -24.8°
